GW3653 Weather Reports


Display with metric or nautical units.
time (UTC)temp
F
wind
direction
speed
MPH
gust
MPH
rain 1hr
in
rain 24hr
in
rain mn
in
humidity
%
barometer
mb
20260510130519 56 0.0 0.0 0.00 0.01 0.01 87 1026.1
20260510125519 57 0.0 0.0 0.00 0.01 0.01 87 1026.1
20260510124519 57 0.0 1.0 0.00 0.01 0.01 87 1025.9
20260510123519 57 0.0 1.0 0.00 0.01 0.01 87 1025.8
20260510122559 57 0.0 3.0 0.00 0.01 0.01 88 1025.7
20260510121519 57 0.0 0.0 0.00 0.01 0.01 88 1025.6
20260510120519 57 0.0 0.0 0.00 0.01 0.01 87 1025.6
20260510115518 58 0.0 0.0 0.00 0.01 0.01 88 1025.6
20260510114539 58 0.0 0.0 0.00 0.01 0.01 87 1025.6
20260510113519 58 0.0 1.0 0.00 0.01 0.01 87 1025.5
20260510112539 59 0.0 1.0 0.00 0.01 0.01 87 1025.4
20260510111519 59 0.0 1.0 0.00 0.01 0.01 87 1025.5
20260510110519 59 0.0 1.0 0.00 0.01 0.01 86 1025.4
20260510105518 59 0.0 1.0 0.00 0.01 0.01 86 1025.2
20260510104519 60 0.0 1.0 0.00 0.01 0.01 85 1025.2
20260510103518 60 0.0 1.0 0.00 0.01 0.01 84 1025.1
20260510102518 60 0.0 2.0 0.00 0.01 0.01 84 1025.2
20260510101518 60 0.0 1.0 0.00 0.01 0.01 83 1025.1
20260510100518 61 0.0 2.0 0.00 0.01 0.01 82 1025.2
20260510095518 61 0.0 1.0 0.00 0.01 0.01 81 1025.2
20260510094518 62 0.0 0.0 0.00 0.01 0.01 79 1025.1
20260510093518 63 0.0 0.0 0.00 0.01 0.01 77 1024.9
20260510092518 63 0.0 2.0 0.00 0.01 0.01 76 1024.8
20260510091518 64 0.0 3.0 0.00 0.01 0.01 75 1024.8
20260510090518 65 0.0 4.0 0.00 0.01 0.01 73 1024.8
20260510085518 66 113 1.0 5.0 0.00 0.01 0.01 72 1024.9
20260510084518 68 0.0 2.0 0.00 0.01 0.01 69 1024.8
20260510083518 69 0.0 0.0 0.00 0.01 0.01 66 1024.8
20260510082518 71 0.0 1.0 0.00 0.01 0.01 63 1024.8
20260510081518 72 0.0 1.0 0.00 0.01 0.01 57 1024.9
20260510080518 72 0.0 1.0 0.00 0.01 0.01 62 1024.9
20260510075518 73 0.0 0.0 0.00 0.01 0.01 55 1024.9
20260510074518 72 0.0 3.0 0.00 0.01 0.01 55 1024.9
20260510073518 72 0.0 1.0 0.00 0.01 0.01 55 1025.0
20260510072518 72 0.0 1.0 0.00 0.01 0.01 55 1025.0
20260510071518 72 0.0 1.0 0.00 0.01 0.01 55 1025.2
20260510070518 71 90 1.0 2.0 0.00 0.01 0.01 56 1025.2
20260510065518 71 0.0 1.0 0.00 0.01 0.01 57 1025.3
20260510064518 71 0.0 1.0 0.00 0.01 0.01 57 1025.3
20260510063518 71 0.0 3.0 0.00 0.01 0.01 55 1025.3
20260510062518 71 0.0 2.0 0.00 0.01 0.01 57 1025.3
20260510061518 71 0.0 2.0 0.00 0.01 0.01 56 1025.3
20260510060538 72 0.0 3.0 0.00 0.01 0.01 57 1025.3
20260510055518 71 0.0 2.0 0.00 0.01 0.01 57 1025.3
20260510054518 71 0.0 1.0 0.00 0.01 0.01 58 1025.4
20260510053518 71 0.0 3.0 0.00 0.01 0.01 57 1025.5
20260510052538 71 113 1.0 5.0 0.00 0.01 0.01 57 1025.7
20260510051518 71 0.0 4.0 0.00 0.01 0.01 58 1025.7
20260510050538 70 90 1.0 3.0 0.00 0.01 0.01 59 1025.8
20260510045518 70 0.0 2.0 0.00 0.01 0.01 60 1026.0
20260510044538 70 0.0 2.0 0.00 0.01 0.01 61 1026.0
20260510043518 70 90 1.0 6.0 0.00 0.01 0.01 61 1026.3
20260510042538 69 248 1.0 3.0 0.00 0.01 0.01 62 1026.4
20260510041638 69 0.0 3.0 0.00 0.01 0.01 62 1026.5
20260510040518 68 0.0 4.0 0.00 0.01 0.01 63 1026.8
20260510035517 68 225 1.0 5.0 0.00 0.01 0.01 63 1026.9
20260510034518 67 248 1.0 4.0 0.00 0.01 0.01 63 1027.2
20260510033518 67 135 1.0 4.0 0.00 0.01 0.01 65 1027.3
20260510032517 66 45 1.0 4.0 0.00 0.01 0.01 65 1027.4
20260510031518 66 45 1.0 3.0 0.00 0.01 0.01 66 1027.6
20260510030557 65 0.0 2.0 0.00 0.01 0.01 69 1027.7
20260510025517 65 0.0 2.0 0.00 0.01 0.01 70 1027.7
20260510024517 64 113 1.0 3.0 0.00 0.01 0.01 70 1027.8
20260510023537 63 90 1.0 4.0 0.00 0.01 0.01 71 1028.0
20260510022517 63 0.0 2.0 0.00 0.01 0.01 73 1028.1
20260510021557 62 0.0 3.0 0.00 0.01 0.01 75 1028.2
20260510020517 61 0.0 2.0 0.00 0.01 0.01 75 1028.1
20260510015517 60 0.0 4.0 0.00 0.01 0.01 77 1028.2
20260510014537 59 0.0 2.0 0.00 0.01 0.01 78 1028.2
20260510013517 58 0.0 2.0 0.00 0.01 0.01 79 1028.4
20260510012517 57 0.0 1.0 0.00 0.01 0.01 80 1028.5
20260510011517 56 0.0 3.0 0.00 0.01 0.01 80 1028.5
20260510010517 56 0.0 1.0 0.00 0.01 0.01 81 1028.6
20260510005537 55 0.0 1.0 0.00 0.01 0.01 82 1028.6
20260510004539 54 0.0 1.0 0.00 0.01 0.01 83 1028.7
20260510003519 53 0.0 1.0 0.00 0.01 0.01 87 1028.6
20260510002519 52 0.0 1.0 0.00 0.01 0.01 90 1028.8
20260510001519 50 0.0 1.0 0.00 0.01 0.01 93 1028.8
20260510000519 48 0.0 1.0 0.00 0.01 0.01 93 1028.7
20260509235519 47 0.0 0.0 0.00 0.01 0.01 92 1028.7
20260509234518 46 0.0 0.0 0.00 0.01 0.01 91 1028.8
20260509233519 46 0.0 0.0 0.00 0.01 0.01 91 1028.7
20260509232519 46 0.0 0.0 0.00 0.01 0.01 92 1028.5
20260509231519 45 0.0 0.0 0.00 0.01 0.01 91 1028.6
20260509230519 45 0.0 0.0 0.00 0.01 0.01 91 1028.4
20260509225518 46 0.0 0.0 0.00 0.01 0.01 90 1028.4
20260509224519 46 0.0 0.0 0.00 0.01 0.01 90 1028.3
20260509223539 46 0.0 0.0 0.00 0.01 0.01 90 1028.3
20260509222539 47 0.0 0.0 0.00 0.01 0.01 90 1028.2
20260509221519 47 0.0 0.0 0.00 0.01 0.01 90 1028.2
20260509220519 48 0.0 0.0 0.00 0.01 0.01 90 1028.2
20260509215518 48 0.0 0.0 0.00 0.01 0.01 90 1028.0
20260509214519 48 0.0 0.0 0.00 0.01 0.01 90 1028.0
20260509213519 48 0.0 0.0 0.00 0.01 0.01 91 1028.0
20260509212519 48 0.0 0.0 0.00 0.01 0.01 91 1027.9
20260509211519 48 0.0 0.0 0.00 0.01 0.01 91 1027.8
20260509210519 49 0.0 0.0 0.00 0.01 0.01 90 1027.8
20260509205518 49 0.0 0.0 0.00 0.01 0.01 90 1027.8
20260509204518 49 0.0 0.0 0.00 0.01 0.01 91 1027.8
20260509203518 49 0.0 0.0 0.00 0.01 0.01 91 1027.7
20260509202518 49 0.0 0.0 0.00 0.01 0.01 91 1027.7
20260509201538 49 0.0 0.0 0.00 0.01 0.01 91 1027.7
20260509200518 49 0.0 0.0 0.00 0.01 0.01 91 1027.6
20260509195518 49 0.0 0.0 0.00 0.01 0.01 91 1027.6
20260509194518 49 0.0 0.0 0.00 0.01 0.01 91 1027.6
20260509193518 50 0.0 0.0 0.00 0.01 0.01 91 1027.6
20260509192519 50 0.0 0.0 0.00 0.01 0.01 91 1027.7
20260509191519 49 0.0 0.0 0.01 0.01 0.01 91 1027.7
20260509190518 49 0.0 0.0 0.01 0.01 0.01 91 1027.7
20260509185519 49 0.0 0.0 0.01 0.01 0.01 90 1027.7
20260509184518 50 0.0 0.0 0.01 0.01 0.01 90 1027.7
20260509183518 50 0.0 0.0 0.01 0.01 0.01 91 1027.6
20260509182518 50 0.0 0.0 0.01 0.01 0.01 90 1027.7
20260509181518 50 0.0 0.0 0.00 0.00 0.00 89 1027.9
20260509180518 50 0.0 0.0 0.00 0.00 0.00 89 1027.8
20260509175518 51 0.0 0.0 0.00 0.00 0.00 89 1027.8
20260509174519 51 0.0 0.0 0.00 0.00 0.00 89 1027.8
20260509173518 52 0.0 1.0 0.00 0.00 0.00 89 1028.0
20260509172518 52 0.0 0.0 0.00 0.00 0.00 90 1027.9
20260509171518 52 0.0 0.0 0.00 0.00 0.00 90 1027.8
20260509170518 52 0.0 3.0 0.00 0.00 0.00 90 1027.9
20260509165518 53 0.0 1.0 0.00 0.00 0.00 90 1028.0
20260509164518 53 0.0 1.0 0.00 0.00 0.00 90 1028.1
20260509163518 53 0.0 0.0 0.00 0.00 0.00 90 1028.2
20260509162518 53 0.0 0.0 0.00 0.00 0.00 90 1028.4
20260509161518 53 0.0 0.0 0.00 0.00 0.00 90 1028.4
20260509160518 53 0.0 0.0 0.00 0.00 0.00 89 1028.4
20260509155518 53 0.0 1.0 0.00 0.00 0.00 90 1028.4
20260509154518 53 0.0 0.0 0.00 0.00 0.00 89 1028.5
20260509153518 53 0.0 0.0 0.00 0.00 0.00 89 1028.5
20260509152518 53 0.0 0.0 0.00 0.00 0.00 89 1028.6
20260509151518 54 0.0 0.0 0.00 0.00 0.00 89 1028.7
20260509150518 54 0.0 0.0 0.00 0.00 0.00 89 1028.8
20260509145518 54 0.0 0.0 0.00 0.00 0.00 89 1028.8
20260509144519 54 0.0 0.0 0.00 0.00 0.00 89 1028.8
20260509143518 54 0.0 1.0 0.00 0.00 0.00 89 1028.9
20260509142519 54 0.0 0.0 0.00 0.00 0.00 88 1028.8
20260509141539 54 0.0 0.0 0.00 0.00 0.00 88 1028.8
20260509140518 54 0.0 1.0 0.00 0.00 0.00 88 1028.9
20260509135518 54 0.0 0.0 0.00 0.00 0.00 87 1028.9
20260509134518 54 0.0 1.0 0.00 0.00 0.00 87 1028.9
20260509133518 54 0.0 0.0 0.00 0.00 0.00 86 1028.8
20260509132518 54 0.0 1.0 0.00 0.00 0.00 86 1028.8
20260509131518 54 0.0 0.0 0.00 0.00 0.00 85 1028.8